EDT,Max TemperatureF,Mean TemperatureF,Min TemperatureF,Max Dew PointF,MeanDew PointF,Min DewpointF,Max Humidity, Mean Humidity, Min Humidity, Max Sea Level PressureIn, Mean Sea Level PressureIn, Min Sea Level PressureIn, Max VisibilityMiles, Mean VisibilityMiles, Min VisibilityMiles, Max Wind SpeedMPH, Mean Wind SpeedMPH, Max Gust SpeedMPH,PrecipitationIn, CloudCover, Events, WindDirDegrees
2013-3-1,33,30,26,29,24,18,89,79,71,30.09,30.00,29.92,10,10,5,12,8,,0.01,8,Snow,9
2013-3-2,27,26,25,19,18,17,78,72,66,30.09,30.07,30.04,10,8,2,15,9,,0.00,8,Snow,345
2013-3-3,30,26,23,18,16,14,81,67,51,30.09,30.05,30.01,10,9,2,15,9,22,0.00,7,Snow,319
2013-3-4,36,28,19,24,18,14,85,65,44,30.17,30.11,30.06,10,10,10,8,4,,0.00,2,,311
2013-3-5,35,32,30,27,26,24,88,79,67,30.09,29.79,29.63,10,5,0,20,11,31,0.28,8,Fog-Rain-Snow,63
2013-3-6,35,32,28,27,25,23,93,80,72,30.25,30.01,29.66,10,7,1,23,16,33,0.05,8,Snow,335
2013-3-7,37,32,28,29,26,22,85,76,62,30.40,30.31,30.19,10,8,5,12,6,,0.00,8,,294
2013-3-8,39,32,25,25,23,20,85,68,51,30.50,30.45,30.40,10,10,8,6,3,,0.00,1,,60
2013-3-9,48,38,28,35,29,23,82,69,56,30.40,30.25,30.03,10,10,7,13,8,,0.00,1,,137
2013-3-10,62,54,46,42,37,31,63,52,44,30.01,29.93,29.81,10,10,10,20,13,30,0.00,3,Rain,168
2013-3-11,57,46,35,49,42,30,96,81,53,29.81,29.67,29.52,10,9,2,29,21,38,0.43,8,Rain,210
2013-3-12,37,34,32,30,28,24,87,78,67,29.99,29.91,29.79,10,9,6,22,17,29,0.00,8,Rain-Snow,250
2013-3-13,32,30,25,28,21,15,86,74,63,30.29,30.07,29.94,10,6,0,23,15,30,0.00,7,Fog-Snow,277
2013-3-14,39,30,21,23,19,15,78,63,46,30.32,30.26,30.15,10,10,10,14,9,18,0.00,0,,254
2013-3-15,46,38,30,40,32,22,93,77,63,30.14,29.95,29.81,10,7,1,13,8,,0.19,4,Rain,224
2013-3-16,42,36,30,39,33,27,100,89,80,30.06,29.81,29.63,10,4,0,17,8,22,0.01,8,Fog-Rain,18
2013-3-17,33,30,28,27,23,18,82,73,64,30.22,30.15,30.06,10,10,9,16,9,22,0.00,6,,38
2013-3-18,44,36,28,41,33,22,93,87,72,30.09,29.74,29.56,10,5,1,24,14,33,0.28,8,Rain,145
2013-3-19,36,30,24,30,19,15,81,64,52,30.03,29.88,29.73,10,10,10,32,24,43,0.00,6,,256
2013-3-20,33,26,21,18,13,9,71,59,47,30.03,29.98,29.95,10,9,2,22,15,30,0.00,6,Snow,285
2013-3-21,30,24,17,19,15,9,79,67,59,30.01,29.96,29.91,10,9,2,18,11,23,0.00,6,Snow,285
2013-3-22,41,30,19,20,17,14,78,60,41,30.05,30.03,29.99,10,10,10,14,8,18,0.00,0,,273
2013-3-23,44,34,25,24,21,18,78,61,37,30.09,30.05,29.99,10,10,10,9,4,,0.00,0,,2
2013-3-24,36,31,28,27,23,20,88,72,56,29.97,29.71,29.49,10,7,0,21,13,39,0.11,6,Fog-Snow,54
2013-3-25,34,32,30,30,28,27,93,87,75,29.93,29.60,29.41,6,2,0,20,14,25,0.20,8,Fog-Snow,355
2013-3-26,37,34,30,29,27,26,88,77,65,30.19,30.06,29.90,10,9,2,16,9,,0.00,8,Snow,295
2013-3-27,39,36,32,29,27,25,82,74,65,30.28,30.24,30.18,10,10,8,17,13,,0.00,6,,274
2013-3-28,46,38,30,29,24,20,72,60,51,30.33,30.30,30.28,10,10,10,15,10,17,0.00,0,,268
2013-3-29,50,40,30,31,27,23,79,60,47,30.32,30.28,30.22,10,10,7,13,5,17,0.00,1,,262
2013-3-30,55,42,30,33,27,22,82,55,35,30.25,30.14,29.94,10,10,8,12,4,18,0.00,0,,205
2013-3-31,57,49,41,45,38,31,87,67,45,29.92,29.78,29.71,10,9,5,20,11,29,0.00,5,Rain,229